Showing default

YAOGAN-36 01C, 53947

Orbit data source: Space-Track

YAOGAN-36 01C, 53947 is a payload satellite owned by PLA GAD (CN) in LEO that was launched on Mon, 26 Sep 2022 UTC via a CHANG ZHENG 2D launch vehicle from the Xichang Space Center, China (XSC). Payload-class satellites include a variety of spacecraft equipped with specific instruments for various scientific and technological missions. These include communications satellites like Starlink; space stations such as the ISS; scientific satellites like the Hubble; Earth observation satellites from companies like Planet Labs, Umbra, and HawkEye 360; GPS; miniature CubeSats for education and research; and military/defense satellites.

Loading next visibility...
Identifier
53947, 2022-120E
Orbit
LEO
Country
Flag of CNCN / PRC
Related business
Manufacturer
SAST
Mission
Operational Defense Sigint
Bus & Motor
Unknown
Mass
~300 kg wet, ~300 kg dry
Launch date (UTC)
2022-09-26 (4 years ago)
Launch vehicle
CHANG ZHENG 2D
Launch site
Xichang Space Center, China (XSC)
Object type
Payload
Rocket body
Debris
Shape & HBR
Box + 2 Pan, 2.5 m
Radar Cross Section
11.063 m², Large (>1 m²)

Expand to show TLE details & history
Last TLE update: 22 hours ago

TLE from 22 hours ago
0 YAOGAN-36 01C
1 53947U 22120E   26172.51178887  .00011726  00000-0  30575-3 0  9998
2 53947  35.0020 210.3478 0003873 190.4364 169.6275 15.38002297208466
Epoch: 2026-06-21T12:16Z
TLE epoch observation values (Epoch: 2026-06-21T12:16:58.558Z)
Latitude
-0.00004°
Longitude
116.39275°
Altitude
453.519 km
Speed
7.641 km/s
True Right ascension
14h 01m 23s
True Declination
0° 00' 00"
Sunlit
Object was in full shadow at epoch
Visualization orbit readout
Latitude
Unknown
Longitude
Unknown
Altitude
Unknown
Speed
Unknown
Apparent Right ascension
Unknown
Apparent Declination
Unknown
Sunlit
N/A
Visualization observer readout
Local Sidereal Time
21:31:55
Azimuth
Unknown
Elevation
Unknown
Doppler factor
Unknown
Orbital elements
Apogee altitude
457.935 km
Perigee altitude
452.642 km
Semi-major axis
6,833.425 km
Eccentricity
0.00039
Inclination
35.002°
RAAN
210.3478°
Arg. of periapsis
190.4364°
True anomaly
169.63549°
Mean anomaly
169.6275°
Eccentric anomaly
169.63149°
Mean motion
3.84225 °/min
Orbital period
93.7 mins
BSTAR
0.00030575
Loading maneuver chart data...
Computing Atmospheric mass density...
Loading historical data...
Loading historical data...
Loading historical data...
Loading historical data...
Loading historical data...
Loading historical data...
Loading historical data...

Documentation

Showing up to 5 results
|